#timestamp,LO_Frequency,Hit,StdDev 
1604336415.6,286046998.0,N
1604336435.4,286046997.5,N
1604336455.3,286046997.0,N
1604336475.1,286047000.8,N
1604336495.9,286047003.6,N
1604336515.7,286047002.3,N
1604336535.5,286047000.8,N
1604336555.4,286046998.2,N
1604336575.2,286047002.0,N
1604336595.0,286047002.3,N
1604336596.0,286047002.3,N
1604336615.8,286047001.2,N
1604336635.6,286047004.3,N
1604336655.5,286047001.9,N
1604336675.3,286047002.3,N
1604336695.1,286046998.5,N
1604336715.9,286047000.4,N
1604336735.7,286047000.1,N
1604336755.5,286047000.9,N
1604336775.4,286047000.6,N
1604336795.2,286047004.4,N
1604336815.1,286046998.2,N
1604336816.0,286046998.2,N
1604336835.8,286047000.5,N
1604336855.6,286046998.6,N
1604336875.5,286046998.6,N
1604336895.3,286046999.2,N
1604336915.1,286047000.9,N
1604336935.9,286047000.9,N
1604336955.7,286047000.3,N
1604336975.6,286047000.6,N
1604336995.4,286047000.7,N
1604337015.2,286046998.9,N
1604337035.1,286046999.7,N
1604337036.0,286046999.7,N
1604337055.8,286046999.8,N
1604337075.6,286047001.6,N
1604337095.5,286047002.7,N
1604337115.3,286047001.2,N
1604337135.2,286047001.2,N
1604337155.9,286046998.6,N
1604337175.7,286046999.0,N
1604337195.6,286046998.1,N
1604337215.4,286047002.8,N
1604337235.2,286047000.5,N
1604337255.1,286047001.0,N
1604337256.0,286047001.0,N
1604337275.8,286046998.1,N
1604337295.7,286046996.9,N
1604337315.5,286046997.9,N
1604337335.3,286046997.4,N
1604337355.2,286046997.4,N
1604337375.0,286046997.1,N
1604337375.9,286046997.1,N
1604337395.7,286046997.8,N
1604337415.6,286046996.6,N
1604337435.4,286046999.4,N
1604337455.3,286046999.6,N
1604337475.1,286046999.2,N
1604337476.0,286046999.2,N
1604337495.8,286046996.6,N
1604337515.7,286046999.1,N
1604337535.5,286046997.0,N
1604337555.3,286046999.3,N
1604337575.2,286047000.1,N
1604337595.0,286047001.0,N
1604337595.9,286047001.0,N
1604337615.8,286047002.6,N
1604337635.6,286047000.8,N
1604337655.4,286046999.0,N
1604337675.3,286047000.8,N
1604337695.1,286046998.2,N
1604337715.9,286047000.8,N
1604337735.7,286047000.9,N
1604337755.5,286047002.8,N
1604337775.4,286047002.3,N
1604337795.2,286046999.4,N
1604337815.0,286046999.0,N
1604337815.9,286046999.0,N
1604337835.8,286047001.1,N
1604337855.6,286046997.4,N
1604337875.5,286046995.3,N
1604337895.3,286046996.6,N
1604337915.1,286046996.5,N
1604337935.9,286047001.0,N
1604337955.7,286047003.0,N
1604337975.5,286047003.8,N
1604337995.4,286047003.7,N
1604338015.2,286047000.5,N
1604338035.1,286046999.3,N
1604338036.0,286046999.3,N
1604338055.8,286047000.8,N
1604338075.6,286047002.5,N
1604338095.5,286047003.6,N
1604338115.3,286047003.7,N
1604338135.1,286047002.7,N
1604338155.9,286047001.6,N
1604338175.7,286047002.7,N
1604338195.6,286047001.9,N
1604338215.4,286047002.2,N
1604338235.2,286047001.3,N
1604338255.1,286047007.1,Y
1604338256.0,286047007.1,P
1604338275.8,286047002.2,N
1604338295.6,286047001.5,N
1604338315.5,286047001.0,N
1604338335.3,286046999.3,N
1604338355.2,286046999.5,N
1604338375.9,286046997.4,N
1604338395.7,286046995.3,N
1604338415.6,286046997.2,N
1604338435.4,286047000.1,N
1604338455.2,286047002.5,N
1604338475.1,286047000.3,N
1604338476.0,286047000.3,N
1604338495.8,286046998.7,N
1604338515.7,286047002.0,N
1604338535.5,286047000.1,N
1604338555.3,286047002.0,N
1604338575.2,286047002.8,N
1604338595.0,286047002.3,N
1604338595.9,286047002.3,N
1604338615.7,286046999.7,N
1604338635.6,286047002.6,N
1604338655.4,286047002.0,N
1604338675.3,286046999.4,N
1604338695.1,286046999.0,N
1604338696.0,286046999.0,N
1604338715.8,286047001.5,N
1604338735.7,286047000.9,N
1604338755.5,286047000.3,N
1604338775.3,286047000.6,N
1604338795.2,286047002.0,N
1604338815.0,286047000.2,N
1604338815.9,286047000.2,N
1604338835.8,286047000.3,N
1604338855.6,286047001.1,N
1604338875.4,286047001.2,N
1604338895.3,286046998.3,N
1604338915.1,286046996.6,N
1604338935.8,286046998.9,N
1604338955.7,286047001.0,N
1604338975.5,286046996.5,N
1604338995.4,286046999.6,N
1604339015.2,286046996.5,N
1604339035.0,286046997.9,N
1604339035.9,286046997.9,N
1604339055.8,286046999.5,N
1604339075.6,286046997.4,N
1604339095.4,286046997.1,N
1604339115.3,286046999.1,N
1604339135.1,286046999.4,N
1604339155.9,286046998.4,N
1604339175.7,286047000.4,N
1604339195.5,286046998.1,N
1604339215.4,286046998.2,N
1604339235.2,286046996.7,N
1604339255.0,286046996.9,N
1604339256.0,286046996.9,N
1604339275.8,286046997.6,N
1604339295.6,286046995.8,N
1604339315.5,286046997.2,N
1604339335.3,286046998.5,N
1604339355.1,286046997.5,N
1604339375.9,286046999.4,N
1604339395.7,286046999.5,N
1604339415.5,286046997.0,N
1604339435.4,286046995.8,Y
1604339455.2,286046996.5,P
1604339475.1,286046999.0,N
1604339476.0,286046999.0,N
1604339495.8,286047001.2,N
1604339515.6,286047000.5,N
1604339535.5,286047000.5,N
1604339555.3,286047000.2,N
1604339575.2,286047001.8,N
1604339595.9,286047004.6,N
1604339615.7,286047005.5,N
1604339635.6,286047006.8,N
1604339655.4,286047007.5,N
1604339675.2,286047004.4,N
1604339695.1,286047002.7,N
1604339696.0,286047002.7,N
1604339715.8,286047002.2,N
1604339735.7,286047005.7,N
1604339755.5,286047006.8,N
1604339775.3,286047004.8,N
1604339795.2,286047003.2,N
1604339815.0,286047003.1,N
1604339815.9,286047003.1,N
1604339835.7,286047006.0,N
1604339855.6,286047001.3,N
1604339875.4,286047003.8,N
1604339895.3,286047004.0,N
1604339915.1,286047003.3,N
1604339916.0,286047003.3,N
1604339935.8,286047004.3,N
1604339955.7,286047002.2,N
1604339975.5,286047000.3,N
1604339995.4,286046998.5,N
